Simultaneous Nadir Overpasses (SNOs) Predictions

Prediction of SNOs between AQUA and NPP Satellite Orbit:

Table of predicted SNOs for the next 14.0 days since TLE Epoch: 7/3/2021
Index Date (AQUA) Time (AQUA) Lat,Lon (AQUA) SZA (AQUA ) Date (NPP) Time (NPP) Lat,Lon (NPP) SZA (NPP ) Distance(km) Time Diff (sec)
1 07/03/2021 21:48:39 -75.48, -89.65 104.35 07/03/2021 21:47:59 -75.49, -89.56 104.34 2.72 40
2 07/03/2021 22:37:44 76.50, 81.13 74.46 07/03/2021 22:38:21 76.51, 81.22 74.41 2.57 37
3 07/06/2021 14:05:07 -75.60, 26.57 104.22 07/06/2021 14:04:54 -75.60, 26.55 104.20 0.78 13
4 07/06/2021 14:54:12 76.61,-162.61 74.59 07/06/2021 14:55:16 76.61,-162.63 74.55 0.79 64
5 07/09/2021 05:32:23 74.95, -26.99 76.86 07/09/2021 05:31:19 74.95, -26.94 76.90 1.50 64
6 07/09/2021 06:21:26 -76.16, 144.12 104.55 07/09/2021 06:21:39 -76.16, 144.19 104.58 1.95 13
7 07/11/2021 21:48:49 75.16, 89.44 76.98 07/11/2021 21:48:12 75.15, 89.40 77.02 1.51 37
8 07/11/2021 22:37:53 -76.31, -99.51 104.38 07/11/2021 22:38:33 -76.31, -99.54 104.40 0.85 40
9 07/14/2021 14:05:05 75.81,-152.84 76.62 07/14/2021 14:04:54 75.81,-152.78 76.62 1.72 11



Historial Predications of SNOs between AQUA and NPP
